Theta_e
309 303 300 304 295 290 286 289 293 295 295 296 298 297 294 297 298 294 301 302 303 304 311 313 322 323 328 333 338 343 348 349 350 351 351 350 350 351 350 351 352 353 354 352 354 353 351 350 348
307 304 304 298 288 284 284 288 290 290 292 294 295 295 293 295 300 297 297 302 303 303 311 313 322 321 322 325 331 335 341 347 348 350 350 351 350 351 350 350 352 351 352 353 353 352 351 349 348
304 302 295 291 285 281 282 287 290 292 293 292 290 292 292 293 295 295 298 301 302 301 305 313 320 319 321 321 324 327 333 339 345 347 348 350 351 352 352 352 352 351 351 351 352 352 350 349 348
295 295 290 284 285 288 287 287 289 289 290 292 290 287 292 294 294 295 299 300 299 300 305 310 316 316 318 319 319 323 325 331 337 342 346 348 350 350 351 351 352 351 351 351 351 352 350 348 347
293 289 282 280 283 286 287 290 289 287 287 288 289 287 289 293 295 296 296 298 298 300 303 304 313 314 315 317 317 319 321 324 328 334 340 345 347 349 349 349 350 351 351 350 350 349 348 347 346
287 286 279 279 282 287 286 287 288 287 288 288 287 286 287 293 293 294 296 295 298 300 302 302 308 311 312 313 314 315 317 320 322 327 334 338 343 346 348 348 347 347 348 348 347 347 346 346 346
285 282 279 280 281 283 286 287 286 285 286 287 289 284 287 291 294 295 294 295 297 299 299 300 301 304 307 309 311 313 315 316 320 321 324 331 335 338 344 344 346 346 345 345 346 345 344 345 345
286 284 280 281 281 282 286 287 289 287 286 291 291 284 283 288 294 295 294 294 295 297 297 298 299 300 300 302 309 311 312 313 317 321 320 321 328 332 334 336 340 345 344 343 344 344 342 344 344
289 281 279 282 282 283 286 285 288 290 288 288 291 288 290 292 294 292 291 292 293 295 295 296 297 298 299 301 303 306 308 310 312 315 320 318 325 335 336 332 335 340 341 341 342 342 340 339 338
286 281 283 284 283 282 285 285 285 285 285 285 287 290 291 291 291 289 289 288 290 290 292 294 294 295 298 300 300 302 304 304 306 310 315 320 321 326 332 327 328 334 335 339 340 340 336 333 338
287 283 285 286 288 287 286 285 286 283 283 286 285 287 288 288 288 288 288 288 288 290 291 292 293 294 295 297 299 300 301 301 303 306 309 315 320 325 331 334 331 331 326 335 337 337 337 336 335
282 288 287 289 289 287 284 286 285 286 285 289 288 287 287 286 287 286 286 287 288 288 289 291 292 292 293 295 296 298 300 301 301 303 306 310 314 320 326 331 332 332 333 334 335 336 336 335 334
284 286 289 289 288 286 288 285 285 285 288 288 289 289 286 286 286 286 287 287 287 287 288 289 290 291 293 294 296 297 299 300 300 301 303 308 309 314 321 328 332 333 334 334 333 334 333 332 330
288 288 287 288 288 288 286 284 285 284 286 286 287 285 286 285 285 285 285 285 286 287 287 289 290 291 292 292 293 295 298 300 299 300 302 307 310 310 313 320 330 331 332 325 328 329 328 327 327
288 283 286 287 288 285 285 282 281 285 286 285 284 285 286 286 286 284 284 284 285 286 287 288 289 291 290 290 292 294 297 299 300 302 304 307 309 310 309 313 322 329 330 322 325 327 327 326 326
283 282 278 286 286 286 285 277 283 284 284 283 284 282 284 285 286 285 284 284 284 285 286 287 289 289 289 290 292 294 296 297 298 300 304 307 309 312 311 311 315 327 329 326 322 324 323 322 323
280 277 278 281 286 284 282 278 284 285 284 282 282 282 283 283 282 283 283 283 283 284 285 285 287 288 289 289 291 293 296 296 297 300 304 306 308 311 311 311 313 319 325 327 324 323 323 322 322
277 276 278 277 283 283 281 280 282 285 284 282 281 282 281 280 280 282 283 284 283 283 284 284 286 287 288 289 290 293 294 295 297 298 302 305 307 308 308 310 311 314 320 323 325 323 323 323 321
280 277 276 280 285 280 279 279 282 284 284 283 281 281 279 278 279 281 282 282 282 282 282 283 284 285 287 287 288 290 292 293 294 297 299 302 308 308 305 307 310 311 314 320 322 322 320 313 310
280 277 276 280 283 280 278 278 282 282 282 282 281 278 278 276 277 279 280 280 280 280 281 282 284 285 286 287 287 289 291 292 293 296 299 301 307 308 306 307 310 312 310 313 320 320 319 313 313
279 278 277 277 279 279 277 274 275 280 281 281 280 280 278 276 276 276 278 277 278 278 280 282 283 284 285 286 288 289 291 293 294 298 302 304 303 303 303 303 307 311 312 312 316 319 318 313 313
276 281 279 278 272 269 276 266 274 277 278 279 279 278 276 275 276 276 277 277 277 278 280 281 283 284 285 285 286 285 286 287 292 296 300 302 298 296 296 298 299 303 307 309 310 315 318 316 313
277 281 278 277 270 269 272 263 271 276 275 277 278 277 275 275 275 275 274 277 277 278 279 280 281 283 283 284 284 285 285 288 292 295 298 299 296 295 293 294 296 298 300 302 303 305 308 316 315
282 279 279 275 273 266 269 269 272 271 272 276 277 276 275 275 275 275 276 277 277 277 278 279 279 281 282 282 282 283 284 286 287 292 293 293 293 291 290 290 291 293 295 296 297 298 301 304 313
277 273 264 264 268 265 274 270 274 274 275 273 271 273 272 274 274 274 274 274 276 275 276 278 278 279 281 281 281 282 283 284 287 288 289 288 288 287 286 287 288 289 290 291 292 292 291 291 294
276 272 266 260 261 265 275 265 274 273 270 268 269 268 274 273 274 273 274 274 274 276 276 277 278 278 279 280 280 282 282 283 285 285 286 285 284 284 284 284 285 285 286 287 287 286 285 286 286
277 272 275 264 262 267 267 273 278 275 271 269 267 274 272 271 272 271 273 273 273 274 276 276 278 278 278 279 280 280 280 281 281 282 283 282 283 283 282 281 281 282 282 283 283 282 282 283 283
277 278 269 267 259 258 266 268 271 269 269 269 268 270 269 271 272 272 271 273 274 274 275 277 277 277 278 278 279 279 279 279 279 280 279 279 280 281 280 280 280 280 281 281 281 280 281 281 281
272 271 273 272 268 261 262 267 270 269 266 268 268 272 267 268 269 270 270 271 270 270 271 273 274 274 276 278 277 277 277 277 277 277 278 278 278 278 278 278 279 279 279 280 280 280 281 280 280
276 269 270 266 264 262 264 268 265 266 264 265 270 273 268 271 269 268 270 267 266 267 268 270 274 274 274 276 277 277 277 277 276 276 277 278 277 278 278 278 277 277 278 278 278 278 278 278 278
Wind_Speed
10 10 2 4 4 5 3 4 3 3 4 2 3 6 2 1 3 3 6 8 9 7 8 11 22 24 25 24 23 23 19 8 8 8 8 9 10 10 10 8 8 9 12 15 16 14 15 14 12
5 6 4 2 5 3 4 4 6 4 2 5 4 2 3 3 5 5 4 10 9 7 6 11 20 23 24 24 23 22 23 18 9 9 10 10 10 11 12 11 10 10 13 15 17 16 16 14 13
6 3 4 4 3 5 5 2 6 5 6 3 3 3 4 4 4 5 5 9 8 7 7 14 21 23 23 24 23 23 21 22 19 11 11 11 13 12 12 11 12 12 14 15 16 16 14 15 14
3 5 5 4 5 5 6 4 4 3 4 3 3 3 7 4 4 3 7 8 7 6 8 15 20 21 22 22 22 21 21 20 20 19 13 13 13 13 12 12 14 13 14 17 17 16 14 14 14
4 4 3 1 5 1 4 5 4 4 2 4 1 1 6 4 4 7 8 9 8 7 9 12 21 20 21 22 21 21 21 20 20 18 18 13 14 13 14 14 14 15 15 16 16 17 16 15 14
4 4 3 3 5 5 4 2 4 2 5 1 5 2 4 1 7 7 8 8 8 10 11 12 15 20 21 21 21 19 20 19 19 19 19 16 14 14 14 15 16 17 17 17 17 17 17 16 15
4 4 5 3 3 2 1 2 5 3 3 2 2 1 5 5 5 5 6 7 8 10 11 10 9 13 17 20 21 19 21 20 19 17 17 18 15 13 13 14 16 18 19 17 17 17 17 17 15
3 4 3 5 3 4 1 2 6 4 2 2 3 3 3 1 5 6 7 8 8 8 8 9 9 9 9 9 16 21 20 20 19 16 14 15 17 13 11 11 13 18 19 14 15 18 19 17 16
3 4 3 2 3 3 2 2 2 1 5 2 5 3 6 2 5 6 5 5 5 8 8 7 9 10 9 10 11 15 19 17 18 13 11 10 8 9 8 10 11 12 16 21 19 16 18 16 14
4 3 3 1 1 2 2 3 4 2 3 3 4 7 6 6 7 8 7 7 8 11 7 7 9 10 10 9 8 8 9 8 8 9 9 6 6 7 9 8 10 12 13 19 23 20 16 13 8
2 5 1 2 3 3 3 6 3 2 5 6 5 2 4 4 6 6 6 5 6 5 7 9 10 9 9 9 8 4 5 5 7 10 9 8 6 5 5 4 3 4 7 6 11 13 10 11 9
1 5 2 0 3 2 2 4 5 7 8 6 8 5 3 4 5 5 5 6 7 7 6 9 8 10 10 7 7 6 5 6 6 9 12 7 4 4 5 4 4 5 4 6 8 7 9 11 8
3 3 4 3 4 4 4 7 5 10 10 8 7 4 2 1 4 5 6 5 5 7 8 7 7 8 10 10 7 8 8 6 7 8 11 9 7 6 4 5 6 5 5 5 6 7 7 9 8
2 5 8 7 4 4 4 5 2 3 6 7 5 1 2 1 4 3 5 5 6 6 7 10 10 8 8 10 11 8 8 9 7 6 8 12 9 5 5 4 5 3 6 6 7 8 7 6 4
2 6 7 7 5 3 3 8 9 8 6 7 5 6 5 4 5 5 5 5 5 5 8 10 12 11 9 12 10 9 8 9 8 8 10 13 11 8 5 4 4 2 4 8 6 7 8 8 8
2 1 4 2 8 2 5 10 4 7 9 9 9 8 7 5 5 6 5 4 4 4 7 9 11 11 9 10 9 9 8 8 9 9 10 12 12 11 6 4 4 3 5 5 7 9 9 8 9
2 4 4 3 8 5 6 8 6 9 9 9 9 8 7 6 5 5 5 5 4 4 5 7 9 11 9 10 10 11 11 9 9 10 10 11 12 10 6 3 5 4 3 5 5 7 8 9 7
3 4 4 5 3 5 10 20 6 8 11 11 10 9 7 5 3 4 4 4 4 5 5 7 8 11 11 8 9 8 9 9 8 8 9 13 9 11 6 4 5 3 3 3 6 9 6 8 7
3 2 6 7 7 5 10 14 16 9 8 9 8 8 6 3 3 4 4 5 4 5 6 8 10 10 9 8 8 8 7 10 9 9 12 13 10 8 7 5 5 4 4 5 6 5 7 4 6
2 3 7 7 3 4 9 22 21 9 7 5 8 7 5 1 3 4 5 4 3 4 5 7 9 11 9 8 7 8 8 10 10 11 13 13 11 6 5 4 4 3 2 4 5 5 5 4 8
4 5 4 5 7 3 10 9 5 2 4 4 4 6 4 2 4 6 5 3 3 5 5 9 9 10 10 10 8 8 9 9 9 8 7 2 6 8 6 5 4 2 2 2 3 5 7 6 7
3 2 1 3 6 3 6 9 6 3 5 5 7 6 3 6 6 4 5 5 5 5 5 6 9 10 9 11 9 12 9 10 9 8 8 1 5 7 8 7 6 6 3 1 1 3 3 5 8
7 4 3 1 3 5 3 4 10 3 6 8 8 5 6 6 6 6 4 2 4 6 5 6 9 8 9 10 10 9 10 8 9 7 10 6 6 8 9 8 8 7 4 5 3 3 4 3 7
2 4 3 3 3 2 6 5 8 5 7 2 4 4 5 6 5 4 3 4 5 5 5 7 8 8 8 8 9 11 10 10 9 7 3 4 4 5 9 8 6 6 4 5 4 3 3 3 3
6 5 5 7 2 7 3 2 14 7 7 5 2 6 6 6 2 2 5 4 5 6 7 8 9 9 9 9 9 10 9 10 9 5 4 5 5 4 5 6 6 4 6 5 3 3 4 4 3
2 6 7 6 3 6 2 8 9 5 1 2 3 5 4 3 3 3 4 4 5 9 8 9 10 9 9 9 8 6 7 5 5 4 4 5 4 4 5 4 6 5 5 2 2 4 4 5 5
2 1 2 5 2 1 5 9 6 2 5 5 5 3 5 3 2 1 4 5 5 6 8 8 8 9 9 8 6 5 5 5 4 3 4 4 3 2 3 4 4 3 3 3 5 5 6 6 6
1 4 3 4 3 6 7 7 8 5 7 5 7 6 5 4 4 4 5 5 5 6 7 7 7 8 8 7 5 4 4 4 3 3 5 5 3 3 4 4 5 4 5 4 6 7 7 10 7
1 1 1 3 5 6 5 10 6 6 6 7 7 6 6 4 3 4 5 5 6 6 6 6 6 6 7 6 4 4 4 3 3 5 5 5 5 6 7 7 7 7 6 7 9 10 9 11 10
1 6 5 6 6 3 4 13 3 6 5 5 7 3 3 1 2 3 5 6 6 6 6 6 6 5 5 5 4 5 4 3 6 6 6 5 7 7 7 8 9 9 8 10 11 12 9 11 12
Wind_Direction
322 309 280 38 69 72 250 261 98 94 57 35 71 77 173 20 6 165 195 3 353 48 37 30 22 18 17 15 12 10 6 276 234 218 199 204 189 182 179 178 159 159 163 163 156 159 151 139 132
317 316 30 79 95 118 265 321 91 60 130 66 40 21 35 89 38 90 44 336 352 27 63 36 25 17 16 15 13 10 8 3 280 248 225 208 205 198 189 186 168 171 169 168 162 165 157 145 141
305 202 77 109 158 183 168 130 129 135 107 92 55 40 44 5 41 93 323 344 357 21 40 31 26 16 14 12 10 10 6 3 359 302 246 229 213 210 191 191 183 181 175 177 169 167 160 152 151
359 11 14 99 229 263 127 154 114 68 39 56 126 72 72 329 72 17 332 350 8 28 48 33 24 15 9 8 6 6 4 0 354 356 309 244 230 219 204 197 192 186 186 183 180 171 164 157 157
26 59 66 273 254 173 73 120 72 74 28 75 117 170 107 33 31 22 0 359 5 22 34 31 22 15 8 3 360 0 359 359 353 351 342 308 247 230 216 210 200 191 189 190 187 180 168 164 165
12 94 78 212 254 123 74 48 111 70 20 67 57 37 128 201 48 356 9 8 18 34 27 19 12 14 7 359 354 355 353 352 351 351 346 331 327 247 232 217 213 201 199 195 195 191 169 170 173
119 93 219 228 220 102 84 346 71 97 23 52 143 344 160 37 6 40 30 28 30 34 27 9 12 9 1 353 348 352 349 345 343 339 340 335 313 309 245 230 221 213 205 200 193 193 175 175 179
100 107 277 244 187 178 203 56 134 131 202 189 126 224 148 308 14 15 28 35 25 27 19 1 10 0 355 346 334 348 344 338 335 327 323 329 312 285 269 225 228 226 214 202 204 201 182 174 177
49 61 255 292 31 186 208 113 208 164 154 161 195 82 139 118 13 24 28 15 39 19 1 10 2 357 349 343 344 336 334 335 331 327 309 315 318 309 286 240 216 220 216 198 209 207 196 180 176
97 131 227 181 56 61 343 71 336 351 255 243 272 118 81 53 43 35 24 2 2 351 354 10 2 351 343 335 333 326 324 323 319 313 312 298 294 301 299 274 240 214 210 202 202 201 189 175 180
323 198 184 41 108 64 338 331 348 313 273 217 182 273 15 76 71 56 17 18 349 354 357 353 350 347 340 328 328 318 317 316 318 314 309 306 289 287 293 281 241 226 214 203 209 197 192 197 174
331 272 161 201 95 58 302 316 311 235 241 160 150 145 105 47 49 56 32 13 14 355 356 346 344 335 333 323 312 306 310 314 314 314 309 302 297 286 285 278 245 220 195 204 197 189 190 196 177
188 311 337 319 280 232 238 244 240 257 262 157 143 115 106 107 84 67 56 36 37 2 338 331 328 327 324 324 327 321 315 299 291 303 299 299 293 283 285 272 271 208 175 160 156 172 172 166 140
277 299 284 270 226 241 246 264 106 240 134 143 150 208 290 76 79 78 49 35 23 353 337 329 332 315 332 327 320 313 314 310 294 286 286 287 282 273 282 285 261 232 162 137 135 139 137 133 132
311 313 304 224 204 220 78 287 228 243 183 175 193 217 240 152 97 76 60 45 19 346 333 337 322 323 331 312 309 304 295 304 302 299 293 279 277 271 269 278 282 166 207 138 136 143 143 152 169
298 232 330 262 139 166 102 276 227 182 159 200 215 226 209 180 124 99 72 33 11 346 334 324 319 309 302 300 302 308 294 300 295 291 288 280 272 266 253 267 266 207 184 143 163 149 157 167 168
292 258 241 313 196 143 195 261 203 204 197 216 219 212 210 187 105 79 64 30 349 331 332 321 318 307 303 307 300 293 294 287 291 288 279 270 260 263 252 240 248 263 135 157 155 177 172 171 166
201 268 295 267 261 214 244 255 251 225 220 223 218 207 206 167 122 80 48 4 341 351 329 312 314 312 310 311 300 294 284 285 295 293 294 273 246 246 262 244 254 222 151 168 161 181 189 159 131
138 215 247 277 280 283 247 274 274 245 255 242 192 192 171 155 116 61 29 346 4 356 335 330 317 315 315 307 303 301 299 297 296 292 288 292 250 228 228 238 253 259 174 146 181 159 169 86 119
156 275 275 281 62 344 291 290 288 283 256 201 175 163 174 182 348 25 8 356 356 325 311 321 319 311 308 306 311 299 301 290 286 288 282 275 257 228 231 253 234 223 210 160 163 170 171 94 175
229 208 245 246 338 287 319 305 319 332 87 98 155 176 161 88 18 2 343 319 341 326 316 332 317 312 312 317 308 311 303 286 279 273 290 344 55 68 42 9 337 77 332 156 148 163 205 131 199
292 65 19 335 39 288 71 283 293 212 232 235 234 221 93 36 15 339 326 353 341 318 336 318 317 314 321 323 318 309 292 293 288 289 287 114 51 63 55 7 355 323 32 347 17 59 205 142 177
226 12 297 195 124 36 336 63 272 178 258 246 243 170 58 17 344 324 332 339 347 343 350 332 320 325 330 330 317 306 298 294 293 285 276 60 56 47 44 16 360 338 5 335 357 329 4 206 173
15 20 51 71 94 336 233 134 275 207 213 210 113 63 13 323 322 324 35 4 347 343 343 330 319 324 327 321 312 307 304 300 295 295 285 33 35 45 31 9 358 323 359 351 327 347 21 342 235
60 59 334 355 328 225 194 215 253 245 223 198 251 303 289 312 314 20 14 0 345 340 338 324 327 322 326 321 316 316 313 309 296 329 8 24 18 26 4 1 357 344 12 338 335 60 61 13 79
162 146 152 245 265 276 239 239 255 231 255 240 221 248 296 4 7 31 359 337 346 343 332 323 320 327 326 321 320 318 317 313 318 346 23 40 38 18 359 12 20 356 28 333 40 64 60 72 50
246 85 153 91 96 334 241 280 292 311 299 300 295 332 323 323 339 308 337 351 348 330 323 321 332 327 322 323 322 329 332 335 328 10 53 60 35 61 47 55 62 23 55 65 88 91 83 80 70
112 166 60 9 1 302 287 282 244 286 276 280 292 303 279 274 295 325 350 352 334 321 316 323 324 319 317 329 338 349 352 344 329 42 64 59 51 58 61 68 76 64 62 67 77 73 72 81 66
74 87 50 118 136 181 296 269 222 208 211 245 278 277 240 265 304 346 340 334 318 317 318 316 319 325 336 344 354 10 10 358 19 55 54 56 54 47 50 47 52 57 65 78 82 82 87 90 89
164 179 150 124 261 232 154 272 218 212 211 216 275 268 259 210 312 339 344 323 326 324 332 327 325 340 343 344 10 30 30 29 51 53 52 67 74 67 66 71 66 61 65 72 77 80 74 78 79